Location: Recife
(8.0585°S, 34.8848°W)
Time: 12:35:18
(UTC-03:00)

Vanguard 1 Rocket - Pass Details

Date: 17 April 2026
Orbit: 655 x 4212 km, 34.3° (Epoch: 12 May)

Event Time Altitude Azimuth Distance (km) Brightness Sun altitude
Rises 21:30:58 0° 286° (WNW) 7,923 12.6 -63.2°
Reaches altitude 10° 21:40:47 10° 306° (NW) 7,298 12.2 -65.6°
Maximum altitude 21:53:47 16° 337° (NNW) 6,861 11.8 -68.8°
Drops below altitude 10° 22:06:21 10° 8° (N) 6,924 11.8 -71.9°
Sets 22:15:26 0° 29° (NNE) 7,323 12.0 -74.1°
